• In Hungary
  • List of Countries
  • For 7 days
  • Water Temperature
  • Satellite Maps
  • Weather Map
  • News
  • Weather Widgets
  • user-avatar
    Login

    Hourly Weather Malanville

    Today, 19 October, Thursday

    Time Temperature Precipitation Wind Pressure Humidity
    00:00 +28°C° 0 mm 2 mps 744 mmHg 21%
    01:00 +27°C° 0 mm 1 mps 744 mmHg 22%
    02:00 +26°C° 0 mm 1 mps 744 mmHg 22%
    03:00 +25°C° 0 mm 1 mps 743 mmHg 23%
    04:00 +25°C° 0 mm 1 mps 744 mmHg 23%
    05:00 +24°C° 0 mm 1 mps 744 mmHg 23%
    06:00 +24°C° 0 mm 1 mps 744 mmHg 23%
    07:00 +28°C° 0 mm 1 mps 745 mmHg 20%
    08:00 +31°C° 0 mm 2 mps 745 mmHg 16%
    09:00 +36°C° 0 mm 2 mps 746 mmHg 12%
    10:00 +38°C° 0 mm 3 mps 745 mmHg 11%
    11:00 +41°C° 0 mm 4 mps 745 mmHg 9%
    12:00 +43°C° 0 mm 4 mps 744 mmHg 7%
    13:00 +43°C° 0 mm 4 mps 743 mmHg 7%
    14:00 +43°C° 0 mm 4 mps 742 mmHg 7%
    15:00 +43°C° 0 mm 4 mps 742 mmHg 7%
    16:00 +40°C° 0 mm 3 mps 742 mmHg 8%
    17:00 +37°C° 0 mm 3 mps 742 mmHg 10%
    18:00 +34°C° 0 mm 2 mps 742 mmHg 11%
    19:00 +32°C° 0 mm 2 mps 743 mmHg 12%
    20:00 +31°C° 0 mm 2 mps 743 mmHg 13%
    21:00 +30°C° 0 mm 2 mps 744 mmHg 14%
    22:00 +29°C° 0 mm 2 mps 744 mmHg 15%
    23:00 +29°C° 0 mm 2 mps 744 mmHg 16%

    Tomorrow, 20 October, Friday

    Time Temperature Precipitation Wind Pressure Humidity
    00:00 +28°C° 0 mm 1 mps 744 mmHg 17%
    01:00 +27°C° 0 mm 1 mps 744 mmHg 19%
    02:00 +26°C° 0 mm 1 mps 743 mmHg 20%
    03:00 +25°C° 0 mm 1 mps 743 mmHg 21%
    04:00 +25°C° 0 mm 1 mps 743 mmHg 22%
    05:00 +25°C° 0 mm 1 mps 744 mmHg 22%
    06:00 +25°C° 0 mm 1 mps 744 mmHg 23%
    07:00 +28°C° 0 mm 2 mps 745 mmHg 21%
    08:00 +32°C° 0 mm 2 mps 745 mmHg 18%
    09:00 +36°C° 0 mm 2 mps 746 mmHg 16%
    10:00 +38°C° 0 mm 3 mps 745 mmHg 14%
    11:00 +39°C° 0 mm 3 mps 744 mmHg 12%
    12:00 +42°C° 0 mm 3 mps 743 mmHg 10%
    13:00 +42°C° 0 mm 3 mps 743 mmHg 10%
    14:00 +42°C° 0 mm 3 mps 742 mmHg 9%
    15:00 +42°C° 0 mm 3 mps 742 mmHg 9%
    16:00 +39°C° 0 mm 2 mps 742 mmHg 11%
    17:00 +36°C° 0 mm 2 mps 742 mmHg 13%
    18:00 +33°C° 0 mm 1 mps 742 mmHg 15%
    19:00 +32°C° 0 mm 1 mps 743 mmHg 16%
    20:00 +31°C° 0 mm 1 mps 743 mmHg 18%
    21:00 +31°C° 0 mm 1 mps 744 mmHg 19%
    22:00 +30°C° 0 mm 1 mps 744 mmHg 21%
    23:00 +29°C° 0 mm 1 mps 744 mmHg 24%

    Day after tomorrow, 21 October, Saturday

    Time Temperature Precipitation Wind Pressure Humidity
    00:00 +28°C° 0 mm 1 mps 744 mmHg 27%
    01:00 +27°C° 0 mm 1 mps 743 mmHg 29%
    02:00 +27°C° 0 mm 1 mps 743 mmHg 31%
    03:00 +26°C° 0 mm 1 mps 743 mmHg 33%
    04:00 +26°C° 0 mm 1 mps 743 mmHg 36%
    05:00 +26°C° 0 mm 1 mps 744 mmHg 39%
    06:00 +25°C° 0 mm 2 mps 744 mmHg 42%
    07:00 +29°C° 0 mm 2 mps 745 mmHg 37%
    08:00 +32°C° 0 mm 2 mps 745 mmHg 33%
    09:00 +36°C° 0 mm 2 mps 746 mmHg 28%
    10:00 +38°C° 0 mm 2 mps 745 mmHg 22%
    11:00 +40°C° 0 mm 2 mps 744 mmHg 17%
    12:00 +42°C° 0 mm 2 mps 743 mmHg 11%
    13:00 +42°C° 0 mm 2 mps 743 mmHg 10%
    14:00 +43°C° 0 mm 2 mps 742 mmHg 9%
    15:00 +43°C° 0 mm 2 mps 741 mmHg 8%
    16:00 +40°C° 0 mm 2 mps 741 mmHg 10%
    17:00 +37°C° 0 mm 2 mps 741 mmHg 11%
    18:00 +34°C° 0 mm 2 mps 741 mmHg 13%
    19:00 +33°C° 0 mm 1 mps 742 mmHg 14%
    20:00 +32°C° 0 mm 1 mps 743 mmHg 16%
    21:00 +31°C° 0 mm 1 mps 743 mmHg 17%
    22:00 +30°C° 0 mm 1 mps 743 mmHg 19%
    23:00 +29°C° 0 mm 1 mps 743 mmHg 20%

    22 October, Sunday

    Time Temperature Precipitation Wind Pressure Humidity
    00:00 +28°C° 0 mm 1 mps 743 mmHg 22%
    01:00 +28°C° 0 mm 1 mps 743 mmHg 23%
    02:00 +27°C° 0 mm 1 mps 743 mmHg 25%
    03:00 +27°C° 0 mm 1 mps 743 mmHg 26%
    04:00 +27°C° 0 mm 1 mps 743 mmHg 30%
    05:00 +26°C° 0 mm 1 mps 743 mmHg 33%
    06:00 +26°C° 0 mm 2 mps 744 mmHg 36%
    07:00 +29°C° 0 mm 2 mps 744 mmHg 35%
    08:00 +34°C° 0 mm 2 mps 745 mmHg 34%
    09:00 +37°C° 0 mm 3 mps 745 mmHg 32%
    10:00 +39°C° 0 mm 2 mps 744 mmHg 26%
    11:00 +41°C° 0 mm 2 mps 743 mmHg 20%
    12:00 +43°C° 0 mm 1 mps 743 mmHg 14%
    13:00 +43°C° 0 mm 1 mps 742 mmHg 13%
    14:00 +43°C° 0 mm 1 mps 741 mmHg 12%
    15:00 +43°C° 0 mm 1 mps 741 mmHg 11%
    16:00 +41°C° 0 mm 1 mps 741 mmHg 13%
    17:00 +38°C° 0 mm 2 mps 741 mmHg 14%
    18:00 +36°C° 0 mm 2 mps 741 mmHg 16%
    19:00 +35°C° 0 mm 2 mps 742 mmHg 18%
    20:00 +34°C° 0 mm 2 mps 743 mmHg 19%
    21:00 +32°C° 0 mm 2 mps 743 mmHg 21%
    22:00 +31°C° 0 mm 2 mps 743 mmHg 25%
    23:00 +30°C° 0 mm 2 mps 743 mmHg 30%

    23 October, Monday

    Time Temperature Precipitation Wind Pressure Humidity
    00:00 +30°C° 0 mm 2 mps 743 mmHg 34%
    01:00 +29°C° 0 mm 2 mps 743 mmHg 39%
    02:00 +29°C° 0 mm 2 mps 743 mmHg 45%
    03:00 +29°C° 0 mm 2 mps 743 mmHg 50%
    04:00 +28°C° 0 mm 2 mps 743 mmHg 55%
    05:00 +28°C° 0 mm 2 mps 743 mmHg 61%
    06:00 +28°C° 0 mm 2 mps 744 mmHg 66%
    07:00 +30°C° 0 mm 3 mps 744 mmHg 59%
    08:00 +34°C° 0 mm 3 mps 744 mmHg 53%
    09:00 +36°C° 0 mm 3 mps 745 mmHg 46%
    10:00 +38°C° 0 mm 2 mps 744 mmHg 38%
    11:00 +41°C° 0 mm 1 mps 743 mmHg 29%
    12:00 +40°C° 0 mm 0 mps 742 mmHg 21%
    13:00 +40°C° 0 mm 0 mps 742 mmHg 20%
    14:00 +43°C° 0 mm 1 mps 741 mmHg 18%
    15:00 +43°C° 0 mm 1 mps 740 mmHg 16%
    16:00 +41°C° 0 mm 1 mps 741 mmHg 19%
    17:00 +39°C° 0 mm 2 mps 741 mmHg 21%
    18:00 +37°C° 0 mm 2 mps 741 mmHg 23%
    19:00 +36°C° 0 mm 2 mps 742 mmHg 25%
    20:00 +35°C° 0 mm 2 mps 742 mmHg 27%
    21:00 +34°C° 0 mm 2 mps 743 mmHg 29%
    22:00 +32°C° 0 mm 2 mps 742 mmHg 32%
    23:00 +32°C° 0 mm 2 mps 742 mmHg 34%

    24 October, Tuesday

    Time Temperature Precipitation Wind Pressure Humidity
    00:00 +31°C° 0 mm 2 mps 742 mmHg 37%
    01:00 +31°C° 0 mm 2 mps 742 mmHg 41%
    02:00 +30°C° 0 mm 1 mps 742 mmHg 44%
    03:00 +30°C° 0 mm 1 mps 742 mmHg 47%
    04:00 +29°C° 0 mm 1 mps 742 mmHg 50%
    05:00 +29°C° 0 mm 2 mps 743 mmHg 54%
    06:00 +29°C° 0 mm 2 mps 743 mmHg 57%
    07:00 +31°C° 0 mm 2 mps 743 mmHg 51%
    08:00 +35°C° 0 mm 2 mps 744 mmHg 46%
    09:00 +37°C° 0 mm 2 mps 744 mmHg 40%
    10:00 +39°C° 0 mm 2 mps 743 mmHg 32%
    11:00 +41°C° 0 mm 1 mps 742 mmHg 24%
    12:00 +43°C° 0 mm 1 mps 741 mmHg 16%
    13:00 +44°C° 0 mm 1 mps 741 mmHg 15%
    14:00 +45°C° 0 mm 2 mps 740 mmHg 13%
    15:00 +45°C° 0 mm 3 mps 740 mmHg 12%
    16:00 +41°C° 0 mm 2 mps 740 mmHg 14%
    17:00 +39°C° 0 mm 2 mps 740 mmHg 16%
    18:00 +36°C° 0 mm 2 mps 740 mmHg 18%
    19:00 +35°C° 0 mm 2 mps 741 mmHg 18%
    20:00 +34°C° 0 mm 2 mps 741 mmHg 19%
    21:00 +34°C° 0 mm 2 mps 742 mmHg 20%
    22:00 +32°C° 0 mm 2 mps 742 mmHg 22%
    23:00 +31°C° 0 mm 1 mps 742 mmHg 25%
    Show more